Chopin — ZDFE4 — position and weather

sailwx.info

Track history (hours):
 
Tides and Currents Weather Stations Pressure Air Temp Water Temp Dewpoint Dewpoint Depression Visibility Wind Speed Wind Dir Waves Ship Positions

Chopin

Last reported at 2015-Apr-23 13:23 UTC. Time now 2015-May-27 23:59 UTC.
Position N 52°16' W 007°02'.
Warning: this ship's position is 34 days out of date.

Length 104 m; draft 6.8 m.

Type: Cargo ship. MMSI: 236099000.

Date/timePositionNaut miles runAvg speedWind from/ knotsBaromVisibWave heightAir tempDewpointWater temp
2015-Apr-23 13:23N 52°16' W 007°02'0 0.0
2015-Apr-23 12:31N 52°16' W 007°02'0 0.0
2015-Apr-23 11:31N 52°16' W 007°02'0 0.0
2015-Apr-23 10:31N 52°16' W 007°02'0 0.0
2015-Apr-23 09:28N 52°16' W 007°02'0 0.0
2015-Apr-23 08:31N 52°16' W 007°02'0 0.0
2015-Apr-23 07:31N 52°16' W 007°02'0 0.0
2015-Apr-23 06:31N 52°16' W 007°02'0 0.0
2015-Apr-23 05:34N 52°16' W 007°02'0 0.0
2015-Apr-23 04:34N 52°16' W 007°02'0 0.0
2015-Apr-23 03:33N 52°16' W 007°02'0 0.0
2015-Apr-23 02:34N 52°16' W 007°02'0 0.0
2015-Apr-23 01:33N 52°16' W 007°02'0 0.0
2015-Apr-23 00:34N 52°16' W 007°02'0 0.0
2015-Apr-22 23:33N 52°16' W 007°02'0 0.0
2015-Apr-22 22:33N 52°16' W 007°02'0 0.0
2015-Apr-22 21:34N 52°16' W 007°02'0 0.0
2015-Apr-22 20:33N 52°16' W 007°02'0 0.0
2015-Apr-22 19:34N 52°16' W 007°02'0 0.0
2015-Apr-22 18:34N 52°16' W 007°02'0 0.0
2015-Apr-22 17:34N 52°16' W 007°02'0 0.0
2015-Apr-22 16:34N 52°16' W 007°02'0 0.0
2015-Apr-22 15:34N 52°16' W 007°02'0 0.0
2015-Apr-22 14:34N 52°16' W 007°02'0 0.0
2015-Apr-22 13:33N 52°16' W 007°02'0 0.0
2015-Apr-22 12:34N 52°16' W 007°02'0 0.0
2015-Apr-22 11:34N 52°16' W 007°02'0 0.0
2015-Apr-22 10:33N 52°16' W 007°02'1 0.6
2015-Apr-22 09:34N 52°16' W 007°01'7 6.7
2015-Apr-22 08:34N 52°10' W 006°57'8 8.4
2015-Apr-22 07:33N 52°02' W 006°54'10 9.6
2015-Apr-22 06:33N 51°53' W 006°49'10 9.7
2015-Apr-22 05:33N 51°44' W 006°43'10 9.3
2015-Apr-22 04:30N 51°35' W 006°38'  
2015-Apr-16 18:33N 49°58' W 002°50'9 8.6
2015-Apr-16 17:33N 50°01' W 002°37'8 8.1
2015-Apr-16 16:33N 50°03' W 002°25'9 9.3
2015-Apr-16 15:33N 49°60' W 002°11'2311.5
2015-Apr-16 13:33N 49°53' W 001°37'1313.2
2015-Apr-16 12:34N 49°48' W 001°19'1414.0
2015-Apr-16 11:33N 49°41' W 000°60'1312.8
2015-Apr-16 10:33N 49°35' W 000°42'1211.7
2015-Apr-16 09:33N 49°29' W 000°27'1110.6
2015-Apr-16 08:33N 49°24' W 000°12'3 2.8
2015-Apr-16 07:32N 49°22' W 000°08'0 0.0
2015-Apr-16 06:32N 49°22' W 000°08'0 0.0
2015-Apr-16 05:32N 49°22' W 000°08'0 0.0
2015-Apr-16 04:32N 49°22' W 000°08'0 0.0
2015-Apr-16 03:32N 49°22' W 000°08'0 0.1
2015-Apr-16 02:32N 49°22' W 000°08'0 0.0
2015-Apr-16 01:32N 49°22' W 000°08'0 0.0
2015-Apr-16 00:32N 49°22' W 000°08'0 0.0
2015-Apr-15 23:31N 49°22' W 000°08'0 0.0
2015-Apr-15 22:31N 49°22' W 000°08'0 0.0
2015-Apr-15 21:31N 49°22' W 000°08'0 0.1
2015-Apr-15 20:31N 49°22' W 000°08'0 0.1
2015-Apr-15 19:31N 49°22' W 000°08'0 0.0
2015-Apr-15 18:31N 49°22' W 000°08'0 0.0
2015-Apr-15 17:31N 49°22' W 000°08'0 0.0
2015-Apr-15 16:31N 49°22' W 000°08'0 0.0
2015-Apr-15 15:31N 49°22' W 000°08'0 0.1
2015-Apr-15 14:31N 49°22' W 000°08'0 0.1
2015-Apr-15 13:31N 49°22' W 000°08'0 0.0
2015-Apr-15 12:31N 49°22' W 000°08'0 0.0
2015-Apr-15 11:31N 49°22' W 000°08'0 0.0
2015-Apr-15 10:31N 49°22' W 000°08'0 0.0
2015-Apr-15 09:31N 49°22' W 000°08'0 0.0
2015-Apr-15 08:31N 49°22' W 000°08'0 0.1
2015-Apr-15 07:31N 49°23' W 000°08'0 0.0
2015-Apr-15 06:31N 49°22' W 000°08'0 0.0
2015-Apr-15 05:31N 49°22' W 000°08'0 0.0
2015-Apr-15 04:31N 49°22' W 000°08'0 0.0
2015-Apr-15 03:31N 49°22' W 000°08'0 0.1
2015-Apr-15 02:31N 49°22' W 000°08'0 0.0
2015-Apr-15 01:31N 49°22' W 000°08'0 0.0
2015-Apr-15 00:31N 49°22' W 000°08'0 0.0
2015-Apr-14 23:31N 49°22' W 000°08'0 0.0
2015-Apr-14 22:31N 49°22' W 000°08'0 0.0
2015-Apr-14 21:31N 49°22' W 000°08'0 0.0
2015-Apr-14 20:31N 49°22' W 000°08'0 0.0
2015-Apr-14 19:31N 49°22' W 000°08'0 0.1
2015-Apr-14 18:31N 49°22' W 000°08'0 0.0
2015-Apr-14 17:31N 49°22' W 000°08'0 0.0
2015-Apr-14 16:31N 49°22' W 000°08'0 0.0
2015-Apr-14 15:31N 49°22' W 000°08'0 0.0
2015-Apr-14 14:34N 49°22' W 000°08'0 0.1
2015-Apr-14 13:31N 49°22' W 000°08'0 0.0
2015-Apr-14 12:31N 49°22' W 000°08'0 0.0
2015-Apr-14 11:34N 49°22' W 000°08'0 0.0
2015-Apr-14 10:34N 49°22' W 000°08'0 0.0
2015-Apr-14 09:33N 49°22' W 000°08'0 0.0
2015-Apr-14 08:33N 49°23' W 000°08'0 0.0
2015-Apr-14 07:33N 49°23' W 000°08'0 0.1
2015-Apr-14 06:33N 49°22' W 000°08'0 0.0
2015-Apr-14 05:33N 49°23' W 000°08'0 0.0
2015-Apr-14 04:33N 49°23' W 000°08'0 0.0
2015-Apr-14 03:33N 49°23' W 000°08'0 0.0
2015-Apr-14 02:33N 49°23' W 000°08'0 0.0
2015-Apr-14 01:33N 49°23' W 000°08'0 0.0
2015-Apr-14 00:33N 49°22' W 000°08'0 0.1
2015-Apr-13 23:33N 49°23' W 000°08'0 0.0
2015-Apr-13 22:33N 49°23' W 000°08'0 0.1
2015-Apr-13 21:33N 49°22' W 000°08'0 0.0
2015-Apr-13 20:33N 49°22' W 000°08'0 0.0
2015-Apr-13 19:33N 49°22' W 000°08'0 0.0
2015-Apr-13 18:33N 49°22' W 000°08'0 0.0
2015-Apr-13 17:33N 49°22' W 000°08'0 0.0
2015-Apr-13 16:33N 49°22' W 000°08'0 0.0
2015-Apr-13 15:33N 49°22' W 000°08'0 0.0
2015-Apr-13 14:33N 49°22' W 000°08'0 0.0
2015-Apr-13 13:33N 49°22' W 000°08'  
Track history (hours):
 
Tides and Currents Weather Stations Pressure Air Temp Water Temp Dewpoint Dewpoint Depression Visibility Wind Speed Wind Dir Waves Ship Positions

Chopin

Last reported at 2015-Apr-23 13:23 UTC. Time now 2015-May-27 23:59 UTC.
Position N 52°16' W 007°02'.
Warning: this ship's position is 34 days out of date.

Length 104 m; draft 6.8 m.

Type: Cargo ship. MMSI: 236099000.

Date/timePositionNaut miles runAvg speedWind from/ knotsBaromVisibWave heightAir tempDewpointWater temp
2015-Apr-23 13:23N 52°16' W 007°02'0 0.0
2015-Apr-23 12:31N 52°16' W 007°02'0 0.0
2015-Apr-23 11:31N 52°16' W 007°02'0 0.0
2015-Apr-23 10:31N 52°16' W 007°02'0 0.0
2015-Apr-23 09:28N 52°16' W 007°02'0 0.0
2015-Apr-23 08:31N 52°16' W 007°02'0 0.0
2015-Apr-23 07:31N 52°16' W 007°02'0 0.0
2015-Apr-23 06:31N 52°16' W 007°02'0 0.0
2015-Apr-23 05:34N 52°16' W 007°02'0 0.0
2015-Apr-23 04:34N 52°16' W 007°02'0 0.0
2015-Apr-23 03:33N 52°16' W 007°02'0 0.0
2015-Apr-23 02:34N 52°16' W 007°02'0 0.0
2015-Apr-23 01:33N 52°16' W 007°02'0 0.0
2015-Apr-23 00:34N 52°16' W 007°02'0 0.0
2015-Apr-22 23:33N 52°16' W 007°02'0 0.0
2015-Apr-22 22:33N 52°16' W 007°02'0 0.0
2015-Apr-22 21:34N 52°16' W 007°02'0 0.0
2015-Apr-22 20:33N 52°16' W 007°02'0 0.0
2015-Apr-22 19:34N 52°16' W 007°02'0 0.0
2015-Apr-22 18:34N 52°16' W 007°02'0 0.0
2015-Apr-22 17:34N 52°16' W 007°02'0 0.0
2015-Apr-22 16:34N 52°16' W 007°02'0 0.0
2015-Apr-22 15:34N 52°16' W 007°02'0 0.0
2015-Apr-22 14:34N 52°16' W 007°02'0 0.0
2015-Apr-22 13:33N 52°16' W 007°02'0 0.0
2015-Apr-22 12:34N 52°16' W 007°02'0 0.0
2015-Apr-22 11:34N 52°16' W 007°02'0 0.0
2015-Apr-22 10:33N 52°16' W 007°02'1 0.6
2015-Apr-22 09:34N 52°16' W 007°01'7 6.7
2015-Apr-22 08:34N 52°10' W 006°57'8 8.4
2015-Apr-22 07:33N 52°02' W 006°54'10 9.6
2015-Apr-22 06:33N 51°53' W 006°49'10 9.7
2015-Apr-22 05:33N 51°44' W 006°43'10 9.3
2015-Apr-22 04:30N 51°35' W 006°38'  
2015-Apr-16 18:33N 49°58' W 002°50'9 8.6
2015-Apr-16 17:33N 50°01' W 002°37'8 8.1
2015-Apr-16 16:33N 50°03' W 002°25'9 9.3
2015-Apr-16 15:33N 49°60' W 002°11'2311.5
2015-Apr-16 13:33N 49°53' W 001°37'1313.2
2015-Apr-16 12:34N 49°48' W 001°19'1414.0
2015-Apr-16 11:33N 49°41' W 000°60'1312.8
2015-Apr-16 10:33N 49°35' W 000°42'1211.7
2015-Apr-16 09:33N 49°29' W 000°27'1110.6
2015-Apr-16 08:33N 49°24' W 000°12'3 2.8
2015-Apr-16 07:32N 49°22' W 000°08'0 0.0
2015-Apr-16 06:32N 49°22' W 000°08'0 0.0
2015-Apr-16 05:32N 49°22' W 000°08'0 0.0
2015-Apr-16 04:32N 49°22' W 000°08'0 0.0
2015-Apr-16 03:32N 49°22' W 000°08'0 0.1
2015-Apr-16 02:32N 49°22' W 000°08'0 0.0
2015-Apr-16 01:32N 49°22' W 000°08'0 0.0
2015-Apr-16 00:32N 49°22' W 000°08'0 0.0
2015-Apr-15 23:31N 49°22' W 000°08'0 0.0
2015-Apr-15 22:31N 49°22' W 000°08'0 0.0
2015-Apr-15 21:31N 49°22' W 000°08'0 0.1
2015-Apr-15 20:31N 49°22' W 000°08'0 0.1
2015-Apr-15 19:31N 49°22' W 000°08'0 0.0
2015-Apr-15 18:31N 49°22' W 000°08'0 0.0
2015-Apr-15 17:31N 49°22' W 000°08'0 0.0
2015-Apr-15 16:31N 49°22' W 000°08'0 0.0
2015-Apr-15 15:31N 49°22' W 000°08'0 0.1
2015-Apr-15 14:31N 49°22' W 000°08'0 0.1
2015-Apr-15 13:31N 49°22' W 000°08'0 0.0
2015-Apr-15 12:31N 49°22' W 000°08'0 0.0
2015-Apr-15 11:31N 49°22' W 000°08'0 0.0
2015-Apr-15 10:31N 49°22' W 000°08'0 0.0
2015-Apr-15 09:31N 49°22' W 000°08'0 0.0
2015-Apr-15 08:31N 49°22' W 000°08'0 0.1
2015-Apr-15 07:31N 49°23' W 000°08'0 0.0
2015-Apr-15 06:31N 49°22' W 000°08'0 0.0
2015-Apr-15 05:31N 49°22' W 000°08'0 0.0
2015-Apr-15 04:31N 49°22' W 000°08'0 0.0
2015-Apr-15 03:31N 49°22' W 000°08'0 0.1
2015-Apr-15 02:31N 49°22' W 000°08'0 0.0
2015-Apr-15 01:31N 49°22' W 000°08'0 0.0
2015-Apr-15 00:31N 49°22' W 000°08'0 0.0
2015-Apr-14 23:31N 49°22' W 000°08'0 0.0
2015-Apr-14 22:31N 49°22' W 000°08'0 0.0
2015-Apr-14 21:31N 49°22' W 000°08'0 0.0
2015-Apr-14 20:31N 49°22' W 000°08'0 0.0
2015-Apr-14 19:31N 49°22' W 000°08'0 0.1
2015-Apr-14 18:31N 49°22' W 000°08'0 0.0
2015-Apr-14 17:31N 49°22' W 000°08'0 0.0
2015-Apr-14 16:31N 49°22' W 000°08'0 0.0
2015-Apr-14 15:31N 49°22' W 000°08'0 0.0
2015-Apr-14 14:34N 49°22' W 000°08'0 0.1
2015-Apr-14 13:31N 49°22' W 000°08'0 0.0
2015-Apr-14 12:31N 49°22' W 000°08'0 0.0
2015-Apr-14 11:34N 49°22' W 000°08'0 0.0
2015-Apr-14 10:34N 49°22' W 000°08'0 0.0
2015-Apr-14 09:33N 49°22' W 000°08'0 0.0
2015-Apr-14 08:33N 49°23' W 000°08'0 0.0
2015-Apr-14 07:33N 49°23' W 000°08'0 0.1
2015-Apr-14 06:33N 49°22' W 000°08'0 0.0
2015-Apr-14 05:33N 49°23' W 000°08'0 0.0
2015-Apr-14 04:33N 49°23' W 000°08'0 0.0
2015-Apr-14 03:33N 49°23' W 000°08'0 0.0
2015-Apr-14 02:33N 49°23' W 000°08'0 0.0
2015-Apr-14 01:33N 49°23' W 000°08'0 0.0
2015-Apr-14 00:33N 49°22' W 000°08'0 0.1
2015-Apr-13 23:33N 49°23' W 000°08'0 0.0
2015-Apr-13 22:33N 49°23' W 000°08'0 0.1
2015-Apr-13 21:33N 49°22' W 000°08'0 0.0
2015-Apr-13 20:33N 49°22' W 000°08'0 0.0
2015-Apr-13 19:33N 49°22' W 000°08'0 0.0
2015-Apr-13 18:33N 49°22' W 000°08'0 0.0
2015-Apr-13 17:33N 49°22' W 000°08'0 0.0
2015-Apr-13 16:33N 49°22' W 000°08'0 0.0
2015-Apr-13 15:33N 49°22' W 000°08'0 0.0
2015-Apr-13 14:33N 49°22' W 000°08'0 0.0
2015-Apr-13 13:33N 49°22' W 000°08'  

Dump ship's entire track history